Home   Weather   Tabriz   Past weeks

Flag for Iran Past Weather in Tabriz, Iran — Yesterday and Last 2 Weeks

Now
19 °F

Clear.


Feels Like: 13 °F
Forecast: 10 / 41 °F
Wind: 5 mph from East

Location: Tabriz Airport

Current Time: Dec 9, 2016 at 3:53:09 am

Latest Report: Dec 9, 2016 at 3:30 am


Visibility: 10 mi

Pressure: 30.27 "Hg (25.33 "Hg at 1388m altitude)

Humidity: 53%

Dew Point: 5 °F

Location of TabrizLocation

Past Weather in Tabriz — Graph

°F

Tabriz Temperature Yesterday

Maximum temperature yesterday: 32 °F (at 11:00 am)
Minimum temperature yesterday: 18 °F (at 5:00 am)
Average temperature yesterday: 24 °F

High & Low Weather Summary for the Past Weeks

 TemperatureHumidityPressure
High52 °F (Dec 1, 4:00 pm)93% (Dec 1, 3:00 am)30.51 "Hg (Dec 1, 3:00 am)
Low10 °F (Nov 24, 7:00 am)17% (Nov 30, 1:00 pm)29.71 "Hg (Dec 2, 7:30 am)
Average32 °F56%30.18 "Hg
* Reported Nov 24 2:30 am — Dec 9 2:30 am, Tabriz, Weather by CustomWeather, © 2016

Note: Actual official high and low records may vary slightly from our data, if they occured in-between our weather recording intervals... More about our weather records

Advertising

Tabriz Weather History for the Previous 24 Hours

Scroll right to see more
 ConditionsComfort  
Time TempWeatherWind HumidityBarometerVisibility
2:30 am
Fri, Dec 9
19 °FPassing clouds.2 mph53%30.27 "HgN/A
2:00 am19 °FPassing clouds.9 mph58%30.27 "HgN/A
1:30 am21 °FPassing clouds.12 mph49%30.27 "HgN/A
1:00 am21 °FPassing clouds.14 mph49%30.27 "HgN/A
12:30 am21 °FPassing clouds.7 mph54%30.30 "HgN/A
12:00 am21 °FPassing clouds.7 mph54%30.27 "HgN/A
11:30 pm
Thu, Dec 8
23 °FPassing clouds.12 mph54%30.30 "HgN/A
11:00 pm23 °FPassing clouds.12 mph50%30.27 "HgN/A
10:30 pm23 °FPassing clouds.9 mph50%30.27 "HgN/A
10:00 pm21 °FPassing clouds.7 mph54%30.30 "HgN/A
9:30 pm23 °FPassing clouds.9 mph54%30.30 "HgN/A
9:00 pm25 °FPassing clouds.12 mph54%30.30 "HgN/A
8:30 pm23 °FPassing clouds.9 mph58%30.27 "HgN/A
8:00 pm23 °FPassing clouds.9 mph58%30.27 "HgN/A
7:30 pm25 °FPassing clouds.9 mph54%30.27 "HgN/A
7:00 pm27 °FPassing clouds.9 mph54%30.27 "HgN/A
6:30 pm27 °FPassing clouds.12 mph50%30.27 "HgN/A
6:00 pm27 °FPassing clouds.12 mph54%30.27 "HgN/A
5:30 pm27 °FSunny.14 mph54%30.24 "Hg10 mi
5:00 pm28 °FPassing clouds.12 mph55%30.27 "HgN/A
4:30 pm30 °FPassing clouds.12 mph51%30.24 "HgN/A
4:00 pm30 °FPassing clouds.16 mph51%30.24 "HgN/A
3:30 pm30 °FPassing clouds.16 mph55%30.24 "HgN/A
3:00 pm30 °FPartly sunny.16 mph55%30.24 "HgN/A
2:30 pm30 °FPartly sunny.16 mph55%30.24 "HgN/A
2:00 pm32 °FPartly sunny.18 mph60%30.24 "HgN/A
1:30 pm30 °FPartly sunny.18 mph55%30.24 "HgN/A
1:00 pm32 °FScattered clouds.21 mph55%30.24 "HgN/A
12:00 pm32 °FPartly sunny.18 mph51%30.24 "HgN/A
11:30 am32 °FScattered clouds.18 mph51%30.24 "HgN/A
11:00 am32 °FScattered clouds.14 mph51%30.24 "HgN/A
10:30 am30 °FPartly sunny.9 mph55%30.24 "HgN/A
10:00 am28 °FPartly sunny.2 mph55%30.24 "HgN/A
9:30 am27 °FScattered clouds.5 mph64%30.24 "HgN/A
8:30 am21 °FPassing clouds.5 mph74%30.21 "HgN/A
8:00 am19 °FPassing clouds.7 mph73%30.21 "HgN/A
7:30 am18 °FClear.7 mph79%30.21 "Hg10 mi
6:30 am18 °FClear.9 mph79%30.18 "Hg10 mi
6:00 am18 °FClear.7 mph79%30.18 "Hg10 mi
5:30 am18 °FClear.7 mph79%30.18 "Hg10 mi
5:00 am18 °FPassing clouds.5 mph79%30.18 "HgN/A
4:30 am19 °FPassing clouds.7 mph73%30.15 "HgN/A
4:00 am19 °FPassing clouds.7 mph79%30.15 "HgN/A
3:30 am19 °FPassing clouds.5 mph79%30.15 "HgN/A
3:00 am19 °FPassing clouds.9 mph79%30.15 "HgN/A
Weather by CustomWeather, © 2016

See weather overviewHow to use our weather pages